sat.trackr.live / text

‹ back to catalog

STARLINK-3615

NORAD 51778 · 2022-017L

PAYLOAD ACTIVE UNKNOWN

§ Identity

Operator
Country
US
Launch date
2022-02-25
Launch site
AFWTR
Launch vehicle
Mass (kg)
RCS (m²)

Purposes: comms

External: N2YO · Heavens-Above · Gunter

§ Orbital elements

Epoch: 2026-05-24T23:23:16.690272Z

Period
95.44 min
Inclination
53.2120°
Eccentricity
0.0001593
Mean motion
15.08750244 rev/d
Perigee alt
538.9 km
Apogee alt
541.1 km
Semi-major
6,918.2 km
B*
1.2766e-3
RAAN
346.5394°
Arg perigee
69.6769°
Mean anomaly
290.4394°
Rev number
23,407

§ Raw data

STARLINK-36151 51778U 22017L   26144.97449873  .00020038  00000+0  12766-2 0  99942 51778  53.2120 346.5394 0001593  69.6769 290.4394 15.08750244234071

JSON: /api/v1/satellites/51778 · /tle

For live sub-satellite position, see the globe view (requires WebGL).

§ Visibility from observer

Set your observer location to see the next 7 days of passes ≥ 10°. The values pass through the URL so the page stays shareable.

No JS? Fill the form by hand. The geolocation button needs JavaScript.